This demonstration page uses our WeatherBlox Daily Observations layout. Learn more.

40.92945, -100.16068

Hourly Observations for December 2, 2016

Temp ( °F °C ) Dew Point ( °F °C ) Humidity (%) Winds ( mph kmh ) Pressure ( in mb ) Visibility ( mi km ) Precip ( " mm )
12:15 am 00:15 Clear 20 -6.8 16 -8.8 86 86 NNW 5 7 30.24 1024 10 16.0934 N/A
12:35 am 00:35 Clear 19 -7 16 -8.8 87 87 NW 8 13 30.24 1024 10 16.0934 N/A
12:55 am 00:55 Clear 19 -7 16 -8.9 86 86 Calm 30.24 1024 10 16.0934 N/A
1:15 am 01:15 Clear 19 -7 16 -9 86 86 Calm 30.24 1024 10 16.0934 N/A
1:35 am 01:35 Clear 19 -7.5 15 -9.4 86 86 Calm 30.27 1025 10 16.0934 N/A
1:55 am 01:55 Clear 18 -7.7 15 -9.5 87 87 WNW 3 6 30.27 1025 10 16.0934 N/A
2:15 am 02:15 Clear 19 -7.5 16 -9.1 88 88 W 3 6 30.3 1026 10 16.0934 N/A
2:35 am 02:35 Clear 19 -7.1 16 -8.8 88 88 W 3 6 30.27 1025 10 16.0934 N/A
2:55 am 02:55 Clear 19 -7.5 15 -9.2 88 88 W 5 7 30.3 1026 10 16.0934 N/A
3:15 am 03:15 Clear 18 -7.6 15 -9.2 88 88 WNW 6 9 30.3 1026 10 16.0934 N/A
3:35 am 03:35 Clear 18 -7.6 15 -9.5 86 86 WNW 5 7 30.3 1026 10 16.0934 N/A
3:55 am 03:55 Clear 18 -7.8 15 -9.5 88 88 WNW 7 11 30.3 1026 10 16.0934 N/A
4:15 am 04:15 Clear 18 -7.7 15 -9.5 87 87 WNW 6 9 30.3 1026 10 16.0934 N/A
4:35 am 04:35 Clear 18 -7.8 15 -9.5 88 88 NW 6 9 30.33 1027 10 16.0934 N/A
4:55 am 04:55 Clear 18 -7.7 15 -9.5 87 87 NW 5 7 30.33 1027 10 16.0934 N/A
5:15 am 05:15 Clear 18 -7.7 15 -9.5 87 87 NW 6 9 30.33 1027 10 16.0934 N/A
5:35 am 05:35 Clear 17 -8.1 14 -9.9 87 87 WNW 5 7 30.33 1027 10 16.0934 N/A
5:55 am 05:55 Clear 17 -8.3 14 -10 88 88 Calm 30.33 1027 10 16.0934 N/A
6:15 am 06:15 Clear 16 -8.7 13 -10.5 87 87 Calm 30.36 1028 10 16.0934 N/A
6:35 am 06:35 Clear 17 -8.5 14 -10.2 88 88 Calm 30.33 1027 10 16.0934 N/A
6:55 am 06:55 Clear 17 -8.1 15 -9.7 88 88 WNW 7 11 30.36 1028 10 16.0934 N/A
7:15 am 07:15 Clear 18 -8 15 -9.6 88 88 W 5 7 30.36 1028 10 16.0934 N/A
7:35 am 07:35 Clear 17 -8.1 14 -9.8 88 88 WNW 8 13 30.36 1028 10 16.0934 N/A
7:55 am 07:55 Sunny 17 -8.2 14 -10 87 87 NW 5 7 30.39 1029 10 16.0934 N/A
8:15 am 08:15 Sunny 18 -7.9 15 -9.5 88 88 WNW 3 6 30.39 1029 10 16.0934 N/A
8:35 am 08:35 Sunny 19 -7 17 -8.6 89 89 Calm 30.39 1029 10 16.0934 N/A
8:55 am 08:55 Sunny 22 -5.7 19 -7.5 87 87 NW 5 7 30.39 1029 10 16.0934 N/A
9:15 am 09:15 Sunny 24 -4.6 20 -6.4 87 87 NNW 3 6 30.39 1029 10 16.0934 N/A
9:35 am 09:35 Sunny 26 -3.4 23 -5.2 88 88 N 3 6 30.39 1029 10 16.0934 N/A
9:55 am 09:55 Sunny 29 -1.8 25 -3.9 86 86 Calm 30.36 1028 10 16.0934 N/A
10:15 am 10:15 Sunny 31 -0.6 26 -3.3 82 82 E 3 6 30.36 1028 10 16.0934 N/A
10:35 am 10:35 Sunny 32 0 26 -3.1 80 80 E 3 6 30.36 1028 10 16.0934 N/A
10:55 am 10:55 Sunny 33 0.6 26 -3.1 77 77 Calm 30.36 1028 10 16.0934 N/A
11:15 am 11:15 Sunny 35 1.4 26 -3.3 71 71 S 3 6 30.36 1028 10 16.0934 N/A
11:35 am 11:35 Sunny 35 1.6 26 -3.5 69 69 SSE 3 6 30.36 1028 10 16.0934 N/A
11:55 am 11:55 Sunny 36 2.3 26 -3.5 66 66 SE 5 7 30.36 1028 10 16.0934 N/A
12:15 pm 12:15 Sunny 37 3 26 -3.3 64 64 E 3 6 30.33 1027 10 16.0934 N/A
12:35 pm 12:35 Sunny 37 2.8 26 -3.2 65 65 Calm 30.36 1028 10 16.0934 N/A
12:55 pm 12:55 Sunny 37 3 26 -3.5 63 63 Calm 30.3 1026 10 16.0934 N/A
1:15 pm 13:15 Sunny 38 3.6 26 -3.3 61 61 Calm 30.33 1027 10 16.0934 N/A
1:35 pm 13:35 Sunny 39 4 26 -3.6 58 58 Calm 30.33 1027 10 16.0934 N/A
1:55 pm 13:55 Sunny 40 4.2 25 -3.9 56 56 Calm 30.3 1026 10 16.0934 N/A
2:15 pm 14:15 Sunny 40 4.4 25 -3.9 55 55 S 3 6 30.3 1026 10 16.0934 N/A
2:35 pm 14:35 Sunny 40 4.3 25 -3.7 56 56 Calm 30.3 1026 10 16.0934 N/A
2:55 pm 14:55 Sunny 40 4.5 25 -3.7 56 56 Calm 30.3 1026 10 16.0934 N/A
3:15 pm 15:15 Sunny 41 4.8 26 -3.5 55 55 Calm 30.3 1026 10 16.0934 N/A
3:35 pm 15:35 Sunny 40 4.3 26 -3.5 57 57 SSW 3 6 30.33 1027 10 16.0934 N/A
3:55 pm 15:55 Sunny 38 3.4 26 -3.5 61 61 SSW 3 6 30.33 1027 10 16.0934 N/A
4:15 pm 16:15 Partly Cloudy 37 3 26 -3.3 64 64 Calm 30.33 1027 10 16.0934 N/A
4:35 pm 16:35 Partly Cloudy 38 3.1 26 -3.5 62 62 S 3 6 30.33 1027 10 16.0934 N/A
4:55 pm 16:55 Sunny 37 2.8 26 -3.6 63 63 S 3 6 30.36 1028 10 16.0934 N/A
5:15 pm 17:15 Clear 36 2.3 25 -3.9 64 64 S 3 6 30.36 1028 10 16.0934 N/A
5:35 pm 17:35 Clear 35 1.6 25 -3.8 68 68 Calm 30.36 1028 10 16.0934 N/A
5:55 pm 17:55 Clear 33 0.5 25 -4 72 72 Calm 30.36 1028 10 16.0934 N/A
6:15 pm 18:15 Clear 31 -0.6 23 -4.8 74 74 Calm 30.39 1029 10 16.0934 N/A
6:35 pm 18:35 Clear 28 -2.5 23 -5 83 83 Calm 30.36 1028 10 16.0934 N/A
6:55 pm 18:55 Clear 26 -3.5 22 -5.6 86 86 Calm 30.39 1029 10 16.0934 N/A
7:15 pm 19:15 Clear 26 -3.2 22 -5.5 84 84 Calm 30.42 1030 10 16.0934 N/A
7:35 pm 19:35 Clear 26 -3.3 22 -5.3 86 86 Calm 30.42 1030 10 16.0934 N/A
7:55 pm 19:55 Clear 26 -3.5 22 -5.6 86 86 S 3 6 30.42 1030 10 16.0934 N/A
8:15 pm 20:15 Clear 27 -2.7 22 -5.3 83 83 Calm 30.39 1029 10 16.0934 N/A
8:35 pm 20:35 Clear 26 -3.4 22 -5.3 87 87 Calm 30.42 1030 10 16.0934 N/A
8:55 pm 20:55 Clear 25 -4 21 -6 86 86 Calm 30.42 1030 10 16.0934 N/A
9:15 pm 21:15 Clear 24 -4.6 20 -6.4 87 87 Calm 30.42 1030 10 16.0934 N/A
9:35 pm 21:35 Clear 24 -4.7 21 -6.2 89 89 Calm 30.42 1030 10 16.0934 N/A
9:55 pm 21:55 Clear 23 -4.8 21 -6.2 90 90 Calm 30.42 1030 10 16.0934 N/A
10:15 pm 22:15 Clear 22 -5.4 20 -6.8 90 90 Calm 30.42 1030 10 16.0934 N/A
10:35 pm 22:35 Clear 21 -5.9 19 -7.4 89 89 Calm 30.45 1031 10 16.0934 N/A
10:55 pm 22:55 Partly Cloudy 22 -5.7 19 -7.1 90 90 Calm 30.42 1030 10 16.0934 N/A
11:15 pm 23:15 Mostly Cloudy 23 -5.1 20 -6.5 90 90 Calm 30.42 1030 10 16.0934 N/A
11:35 pm 23:35 Cloudy 23 -4.9 20 -6.4 89 89 Calm 30.45 1031 10 16.0934 N/A
11:55 pm 23:55 Cloudy 23 -4.9 20 -6.5 89 89 Calm 30.45 1031 10 16.0934 N/A

Powered by AerisWeather